Torna al catalogo

GLOBALSTAR M096

AttivoComunicazioniLEO
NORAD 39075·PAYLOAD·🇺🇸 United States

Lanciato Feb 6, 2013 da Baikonur Cosmodrome

Loading…

Prossimi Passaggi (prossime 24 ore)

TLE

AggiornatoSource: Space-Track

Epoca: Sep 14, 2026, 13:09 UTC

1 39075U 13005D   26257.54818296 -.00000097  00000-0  40097-4 0  9999
2 39075  52.0071 287.5946 0000520 114.9502 245.1419 12.62264469628678

Traccia GLOBALSTAR M096 in tempo reale con AllMySat

Download on the App Store